Location: Dattensoll
(49.9928°N, 9.8954°E)
Time: 00:31:49
(UTC+00:00)

ALOS 2 - Pass Details

Date: 19 May 2025
Orbit: 630 x 632 km, 97.9° (Epoch: 23 June)

Event Time Altitude Azimuth Distance (km) Brightness Sun altitude
Exits shadow 22:18:01 35° 130° (SE) 1,018 3.2 -18.8°
Maximum altitude 22:19:35 56° 71° (ENE) 761 3.0 -18.9°
Drops below altitude 10° 22:23:53 10° 354° (N) 2,028 6.4 -19.0°
Sets 22:26:08 0° 350° (N) 2,941 7.7 -19.1°
